FLOCK 2K-31 (42869 NORAD) Tracking and Keplerian Element Data

This shows tracking and keplerian element data for the satellite.

Feedback or suggestion? Click here.




ElementValue
Catalog42869
NameFLOCK 2K-31
Epoch Orbit22088
Epoch Day171.56140492
Epoch Year2021
RAAN24.7671
Inclination96.8507
Eccentricity0.0010013
Argument of Perigee64.9513
Mean Anonmoly295.2776
Mean Motion15.4607141
Decay Rate7.594E-05
L11 42869U 17042AW 21171.56140492 .00007594 00000-0 15672-3 0 9995
L22 42869 96.8507 24.7671 0010013 64.9513 295.2776 15.46071410220883

Live tracking and technical data element details for FLOCK 2K-31 (NORAD 42869). FLOCK 2K-31 can be tracked NOW for your location showing map with azimuth and elevation plus other details from your city location.

Track the satellite on the map from your city or location and see movement details for azimuth, elevation, latitude, longitude, range, height, and movement on the map or in text.







IsCatalogInMostPopularTable: catalog: 42869, numindb: 575
Update: records affected: 1



GetName: 42869 FLOCK 2K-31

Hit Count: updated at: Tue, 22 Jun 2021 02:07:54 GMT